owner,sensor,date,latitude,longitude,vertical_datum,wind_speed,wind_to_direction,wind_speed_of_gust,qcFlag 
LUMCON,ioos:station:LUMCON:101:1,2016-08-01T13:30:00Z,29.2533,-90.6633,1.0,1.7,175.0,-9999.0,'1111122,1111122,1111122' 
LUMCON,ioos:station:LUMCON:101:1,2016-08-02T13:15:00Z,29.2533,-90.6633,1.0,2.1,335.0,-9999.0,'1111122,1111122,1111122' 
LUMCON,ioos:station:LUMCON:101:1,2016-08-03T13:15:00Z,29.2533,-90.6633,1.0,4.0,312.0,-9999.0,'1111122,1111122,1111122' 
LUMCON,ioos:station:LUMCON:101:1,2016-08-03T13:30:00Z,29.2533,-90.6633,1.0,4.6,321.0,-9999.0,'1111122,1111122,1111122' 
LUMCON,ioos:station:LUMCON:101:1,2016-08-03T13:45:00Z,29.2533,-90.6633,1.0,4.6,336.0,-9999.0,'1111122,1111122,1111122' 
LUMCON,ioos:station:LUMCON:101:1,2016-08-03T14:00:00Z,29.2533,-90.6633,1.0,5.4,334.0,-9999.0,'1111122,1111122,1111122' 
LUMCON,ioos:station:LUMCON:101:1,2016-08-08T15:45:00Z,29.2533,-90.6633,1.0,2.8,268.0,-9999.0,'1111122,1111122,1111122' 
LUMCON,ioos:station:LUMCON:101:1,2016-08-08T16:00:00Z,29.2533,-90.6633,1.0,2.7,246.0,-9999.0,'1111122,1111122,1111122' 
LUMCON,ioos:station:LUMCON:101:1,2016-08-09T16:00:00Z,29.2533,-90.6633,1.0,3.8,302.0,-9999.0,'1111122,1111122,1111122' 
LUMCON,ioos:station:LUMCON:101:1,2016-08-10T12:30:00Z,29.2533,-90.6633,1.0,3.5,296.0,-9999.0,'1111122,1111122,1111122' 
LUMCON,ioos:station:LUMCON:101:1,2016-08-10T12:45:00Z,29.2533,-90.6633,1.0,6.4,270.0,-9999.0,'1111122,1111122,1111122' 
LUMCON,ioos:station:LUMCON:101:1,2016-08-10T13:00:00Z,29.2533,-90.6633,1.0,4.9,249.0,-9999.0,'1111122,1111122,1111122' 
LUMCON,ioos:station:LUMCON:101:1,2016-08-10T13:45:00Z,29.2533,-90.6633,1.0,2.8,259.0,-9999.0,'1111122,1111122,1111122' 
LUMCON,ioos:station:LUMCON:101:1,2016-08-10T14:00:00Z,29.2533,-90.6633,1.0,3.1,288.0,-9999.0,'1111122,1111122,1111122' 
LUMCON,ioos:station:LUMCON:101:1,2016-08-10T14:15:00Z,29.2533,-90.6633,1.0,6.7,264.0,-9999.0,'1111122,1111122,1111122' 
LUMCON,ioos:station:LUMCON:101:1,2016-08-10T17:45:00Z,29.2533,-90.6633,1.0,8.2,238.0,-9999.0,'1111122,1111122,1111122' 
LUMCON,ioos:station:LUMCON:101:1,2016-08-10T18:00:00Z,29.2533,-90.6633,1.0,10.0,238.0,-9999.0,'1111122,1111122,1111122' 
LUMCON,ioos:station:LUMCON:101:1,2016-08-10T19:15:00Z,29.2533,-90.6633,1.0,5.4,242.0,-9999.0,'1111122,1111122,1111122' 
LUMCON,ioos:station:LUMCON:101:1,2016-08-10T20:00:00Z,29.2533,-90.6633,1.0,6.1,275.0,-9999.0,'1111122,1111122,1111122' 
LUMCON,ioos:station:LUMCON:101:1,2016-08-11T14:30:00Z,29.2533,-90.6633,1.0,6.6,238.0,-9999.0,'1111122,1111122,1111122' 
LUMCON,ioos:station:LUMCON:101:1,2016-08-11T17:45:00Z,29.2533,-90.6633,1.0,3.9,274.0,-9999.0,'1111122,1111122,1111122' 
LUMCON,ioos:station:LUMCON:101:1,2016-08-11T18:00:00Z,29.2533,-90.6633,1.0,4.7,255.0,-9999.0,'1111122,1111122,1111122' 
LUMCON,ioos:station:LUMCON:101:1,2016-08-11T18:15:00Z,29.2533,-90.6633,1.0,3.7,244.0,-9999.0,'1111122,1111122,1111122' 
LUMCON,ioos:station:LUMCON:101:1,2016-08-11T19:15:00Z,29.2533,-90.6633,1.0,3.0,232.0,-9999.0,'1111122,1111122,1111122' 
LUMCON,ioos:station:LUMCON:101:1,2016-08-12T13:15:00Z,29.2533,-90.6633,1.0,4.5,233.0,-9999.0,'1111122,1111122,1111122' 
LUMCON,ioos:station:LUMCON:101:1,2016-08-12T13:30:00Z,29.2533,-90.6633,1.0,3.4,208.0,-9999.0,'1111122,1111122,1111122' 
LUMCON,ioos:station:LUMCON:101:1,2016-08-12T13:45:00Z,29.2533,-90.6633,1.0,3.1,208.0,-9999.0,'1111122,1111122,1111122' 
LUMCON,ioos:station:LUMCON:101:1,2016-08-12T14:00:00Z,29.2533,-90.6633,1.0,3.6,224.0,-9999.0,'1111122,1111122,1111122' 
LUMCON,ioos:station:LUMCON:101:1,2016-08-15T15:15:00Z,29.2533,-90.6633,1.0,5.3,102.0,-9999.0,'1111122,1111122,1111122' 
LUMCON,ioos:station:LUMCON:101:1,2016-08-16T13:30:00Z,29.2533,-90.6633,1.0,5.2,116.0,-9999.0,'1111122,1111122,1111122' 
LUMCON,ioos:station:LUMCON:101:1,2016-08-16T14:15:00Z,29.2533,-90.6633,1.0,5.1,110.0,-9999.0,'1111122,1111122,1111122' 
LUMCON,ioos:station:LUMCON:101:1,2016-08-16T14:30:00Z,29.2533,-90.6633,1.0,5.9,103.0,-9999.0,'1111122,1111122,1111122' 
LUMCON,ioos:station:LUMCON:101:1,2016-08-16T14:45:00Z,29.2533,-90.6633,1.0,7.3,121.0,-9999.0,'1111122,1111122,1111122' 
LUMCON,ioos:station:LUMCON:101:1,2016-08-16T22:45:00Z,29.2533,-90.6633,1.0,5.3,113.0,-9999.0,'1111122,1111122,1111122' 
LUMCON,ioos:station:LUMCON:101:1,2016-08-17T15:00:00Z,29.2533,-90.6633,1.0,6.6,86.0,-9999.0,'1111122,1111122,1111122' 
LUMCON,ioos:station:LUMCON:101:1,2016-08-17T15:15:00Z,29.2533,-90.6633,1.0,4.7,83.0,-9999.0,'1111122,1111122,1111122' 
LUMCON,ioos:station:LUMCON:101:1,2016-08-17T22:15:00Z,29.2533,-90.6633,1.0,4.9,127.0,-9999.0,'1111122,1111122,1111122' 
LUMCON,ioos:station:LUMCON:101:1,2016-08-18T14:30:00Z,29.2533,-90.6633,1.0,4.2,93.0,-9999.0,'1111122,1111122,1111122' 
LUMCON,ioos:station:LUMCON:101:1,2016-08-19T17:30:00Z,29.2533,-90.6633,1.0,5.0,157.0,-9999.0,'1111122,1111122,1111122' 
LUMCON,ioos:station:LUMCON:101:1,2016-08-19T20:30:00Z,29.2533,-90.6633,1.0,3.3,191.0,-9999.0,'1111122,1111122,1111122' 
LUMCON,ioos:station:LUMCON:101:1,2016-08-19T20:45:00Z,29.2533,-90.6633,1.0,3.3,170.0,-9999.0,'1111122,1111122,1111122' 
LUMCON,ioos:station:LUMCON:101:1,2016-08-19T21:00:00Z,29.2533,-90.6633,1.0,3.9,179.0,-9999.0,'1111122,1111122,1111122' 
LUMCON,ioos:station:LUMCON:101:1,2016-08-19T21:15:00Z,29.2533,-90.6633,1.0,4.5,171.0,-9999.0,'1111122,1111122,1111122' 
LUMCON,ioos:station:LUMCON:101:1,2016-08-19T21:30:00Z,29.2533,-90.6633,1.0,4.0,167.0,-9999.0,'1111122,1111122,1111122' 
LUMCON,ioos:station:LUMCON:101:1,2016-08-19T21:45:00Z,29.2533,-90.6633,1.0,3.7,171.0,-9999.0,'1111122,1111122,1111122' 
LUMCON,ioos:station:LUMCON:101:1,2016-08-19T22:00:00Z,29.2533,-90.6633,1.0,4.7,177.0,-9999.0,'1111122,1111122,1111122' 
LUMCON,ioos:station:LUMCON:101:1,2016-08-19T22:15:00Z,29.2533,-90.6633,1.0,4.3,172.0,-9999.0,'1111122,1111122,1111122' 
LUMCON,ioos:station:LUMCON:101:1,2016-08-19T22:30:00Z,29.2533,-90.6633,1.0,4.8,205.0,-9999.0,'1111122,1111122,1111122' 
LUMCON,ioos:station:LUMCON:101:1,2016-08-19T22:45:00Z,29.2533,-90.6633,1.0,5.1,176.0,-9999.0,'1111122,1111122,1111122' 
LUMCON,ioos:station:LUMCON:101:1,2016-08-19T23:00:00Z,29.2533,-90.6633,1.0,3.6,178.0,-9999.0,'1111122,1111122,1111122' 
LUMCON,ioos:station:LUMCON:101:1,2016-08-19T23:15:00Z,29.2533,-90.6633,1.0,2.5,187.0,-9999.0,'1111122,1111122,1111122' 
LUMCON,ioos:station:LUMCON:101:1,2016-08-19T23:30:00Z,29.2533,-90.6633,1.0,4.1,184.0,-9999.0,'1111122,1111122,1111122' 
LUMCON,ioos:station:LUMCON:101:1,2016-08-19T23:45:00Z,29.2533,-90.6633,1.0,3.0,180.0,-9999.0,'1111122,1111122,1111122' 
LUMCON,ioos:station:LUMCON:101:1,2016-08-20T00:00:00Z,29.2533,-90.6633,1.0,3.6,188.0,-9999.0,'1111122,1111122,1111122' 
LUMCON,ioos:station:LUMCON:101:1,2016-08-20T00:15:00Z,29.2533,-90.6633,1.0,3.2,205.0,-9999.0,'1111122,1111122,1111122' 
LUMCON,ioos:station:LUMCON:101:1,2016-08-20T00:30:00Z,29.2533,-90.6633,1.0,2.7,189.0,-9999.0,'1111122,1111122,1111122' 
LUMCON,ioos:station:LUMCON:101:1,2016-08-20T00:45:00Z,29.2533,-90.6633,1.0,2.6,183.0,-9999.0,'1111122,1111122,1111122' 
LUMCON,ioos:station:LUMCON:101:1,2016-08-20T01:00:00Z,29.2533,-90.6633,1.0,4.1,176.0,-9999.0,'1111122,1111122,1111122' 
LUMCON,ioos:station:LUMCON:101:1,2016-08-20T01:15:00Z,29.2533,-90.6633,1.0,3.1,201.0,-9999.0,'1111122,1111122,1111122' 
LUMCON,ioos:station:LUMCON:101:1,2016-08-20T01:30:00Z,29.2533,-90.6633,1.0,3.2,180.0,-9999.0,'1111122,1111122,1111122' 
LUMCON,ioos:station:LUMCON:101:1,2016-08-20T01:45:00Z,29.2533,-90.6633,1.0,2.8,174.0,-9999.0,'1111122,1111122,1111122' 
LUMCON,ioos:station:LUMCON:101:1,2016-08-20T02:00:00Z,29.2533,-90.6633,1.0,3.2,164.0,-9999.0,'1111122,1111122,1111122' 
LUMCON,ioos:station:LUMCON:101:1,2016-08-20T02:15:00Z,29.2533,-90.6633,1.0,4.1,169.0,-9999.0,'1111122,1111122,1111122' 
LUMCON,ioos:station:LUMCON:101:1,2016-08-20T02:30:00Z,29.2533,-90.6633,1.0,2.4,166.0,-9999.0,'1111122,1111122,1111122' 
LUMCON,ioos:station:LUMCON:101:1,2016-08-20T02:45:00Z,29.2533,-90.6633,1.0,4.1,175.0,-9999.0,'1111122,1111122,1111122' 
LUMCON,ioos:station:LUMCON:101:1,2016-08-20T03:00:00Z,29.2533,-90.6633,1.0,2.6,180.0,-9999.0,'1111122,1111122,1111122' 
LUMCON,ioos:station:LUMCON:101:1,2016-08-20T03:15:00Z,29.2533,-90.6633,1.0,3.8,169.0,-9999.0,'1111122,1111122,1111122' 
LUMCON,ioos:station:LUMCON:101:1,2016-08-20T03:30:00Z,29.2533,-90.6633,1.0,3.5,173.0,-9999.0,'1111122,1111122,1111122' 
LUMCON,ioos:station:LUMCON:101:1,2016-08-20T03:45:00Z,29.2533,-90.6633,1.0,3.3,172.0,-9999.0,'1111122,1111122,1111122' 
LUMCON,ioos:station:LUMCON:101:1,2016-08-20T04:00:00Z,29.2533,-90.6633,1.0,3.0,182.0,-9999.0,'1111122,1111122,1111122' 
LUMCON,ioos:station:LUMCON:101:1,2016-08-20T04:15:00Z,29.2533,-90.6633,1.0,3.6,179.0,-9999.0,'1111122,1111122,1111122' 
LUMCON,ioos:station:LUMCON:101:1,2016-08-20T04:30:00Z,29.2533,-90.6633,1.0,4.9,182.0,-9999.0,'1111122,1111122,1111122' 
LUMCON,ioos:station:LUMCON:101:1,2016-08-20T04:45:00Z,29.2533,-90.6633,1.0,4.1,176.0,-9999.0,'1111122,1111122,1111122' 
LUMCON,ioos:station:LUMCON:101:1,2016-08-20T05:00:00Z,29.2533,-90.6633,1.0,3.9,169.0,-9999.0,'1111122,1111122,1111122' 
LUMCON,ioos:station:LUMCON:101:1,2016-08-20T05:15:00Z,29.2533,-90.6633,1.0,3.8,170.0,-9999.0,'1111122,1111122,1111122' 
LUMCON,ioos:station:LUMCON:101:1,2016-08-20T05:30:00Z,29.2533,-90.6633,1.0,2.7,177.0,-9999.0,'1111122,1111122,1111122' 
LUMCON,ioos:station:LUMCON:101:1,2016-08-20T05:45:00Z,29.2533,-90.6633,1.0,3.3,168.0,-9999.0,'1111122,1111122,1111122' 
LUMCON,ioos:station:LUMCON:101:1,2016-08-20T06:00:00Z,29.2533,-90.6633,1.0,3.6,173.0,-9999.0,'1111122,1111122,1111122' 
LUMCON,ioos:station:LUMCON:101:1,2016-08-20T06:15:00Z,29.2533,-90.6633,1.0,3.5,181.0,-9999.0,'1111122,1111122,1111122' 
LUMCON,ioos:station:LUMCON:101:1,2016-08-20T06:30:00Z,29.2533,-90.6633,1.0,3.5,179.0,-9999.0,'1111122,1111122,1111122' 
LUMCON,ioos:station:LUMCON:101:1,2016-08-20T06:45:00Z,29.2533,-90.6633,1.0,4.3,179.0,-9999.0,'1111122,1111122,1111122' 
LUMCON,ioos:station:LUMCON:101:1,2016-08-20T07:00:00Z,29.2533,-90.6633,1.0,3.6,182.0,-9999.0,'1111122,1111122,1111122' 
LUMCON,ioos:station:LUMCON:101:1,2016-08-20T07:15:00Z,29.2533,-90.6633,1.0,5.4,166.0,-9999.0,'1111122,1111122,1111122' 
LUMCON,ioos:station:LUMCON:101:1,2016-08-20T07:30:00Z,29.2533,-90.6633,1.0,4.5,189.0,-9999.0,'1111122,1111122,1111122' 
LUMCON,ioos:station:LUMCON:101:1,2016-08-20T07:45:00Z,29.2533,-90.6633,1.0,4.7,179.0,-9999.0,'1111122,1111122,1111122' 
LUMCON,ioos:station:LUMCON:101:1,2016-08-20T08:00:00Z,29.2533,-90.6633,1.0,4.3,182.0,-9999.0,'1111122,1111122,1111122' 
LUMCON,ioos:station:LUMCON:101:1,2016-08-20T08:15:00Z,29.2533,-90.6633,1.0,3.9,174.0,-9999.0,'1111122,1111122,1111122' 
LUMCON,ioos:station:LUMCON:101:1,2016-08-20T08:30:00Z,29.2533,-90.6633,1.0,4.3,173.0,-9999.0,'1111122,1111122,1111122' 
LUMCON,ioos:station:LUMCON:101:1,2016-08-20T08:45:00Z,29.2533,-90.6633,1.0,2.9,182.0,-9999.0,'1111122,1111122,1111122' 
LUMCON,ioos:station:LUMCON:101:1,2016-08-20T09:00:00Z,29.2533,-90.6633,1.0,4.1,179.0,-9999.0,'1111122,1111122,1111122' 
LUMCON,ioos:station:LUMCON:101:1,2016-08-20T09:15:00Z,29.2533,-90.6633,1.0,3.3,181.0,-9999.0,'1111122,1111122,1111122' 
LUMCON,ioos:station:LUMCON:101:1,2016-08-20T09:30:00Z,29.2533,-90.6633,1.0,3.1,209.0,-9999.0,'1111122,1111122,1111122' 
LUMCON,ioos:station:LUMCON:101:1,2016-08-20T09:45:00Z,29.2533,-90.6633,1.0,2.5,192.0,-9999.0,'1111122,1111122,1111122' 
LUMCON,ioos:station:LUMCON:101:1,2016-08-20T10:00:00Z,29.2533,-90.6633,1.0,3.6,189.0,-9999.0,'1111122,1111122,1111122' 
LUMCON,ioos:station:LUMCON:101:1,2016-08-20T10:15:00Z,29.2533,-90.6633,1.0,3.5,182.0,-9999.0,'1111122,1111122,1111122' 
LUMCON,ioos:station:LUMCON:101:1,2016-08-20T10:30:00Z,29.2533,-90.6633,1.0,2.7,196.0,-9999.0,'1111122,1111122,1111122' 
LUMCON,ioos:station:LUMCON:101:1,2016-08-20T10:45:00Z,29.2533,-90.6633,1.0,1.7,169.0,-9999.0,'1111122,1111122,1111122' 
LUMCON,ioos:station:LUMCON:101:1,2016-08-20T11:00:00Z,29.2533,-90.6633,1.0,2.8,185.0,-9999.0,'1111122,1111122,1111122' 
LUMCON,ioos:station:LUMCON:101:1,2016-08-20T11:15:00Z,29.2533,-90.6633,1.0,2.6,194.0,-9999.0,'1111122,1111122,1111122' 
LUMCON,ioos:station:LUMCON:101:1,2016-08-20T11:30:00Z,29.2533,-90.6633,1.0,2.6,173.0,-9999.0,'1111122,1111122,1111122' 
LUMCON,ioos:station:LUMCON:101:1,2016-08-20T11:45:00Z,29.2533,-90.6633,1.0,2.6,177.0,-9999.0,'1111122,1111122,1111122' 
LUMCON,ioos:station:LUMCON:101:1,2016-08-20T12:00:00Z,29.2533,-90.6633,1.0,2.4,176.0,-9999.0,'1111122,1111122,1111122' 
LUMCON,ioos:station:LUMCON:101:1,2016-08-20T12:15:00Z,29.2533,-90.6633,1.0,3.1,194.0,-9999.0,'1111122,1111122,1111122' 
LUMCON,ioos:station:LUMCON:101:1,2016-08-20T12:30:00Z,29.2533,-90.6633,1.0,2.2,168.0,-9999.0,'1111122,1111122,1111122' 
LUMCON,ioos:station:LUMCON:101:1,2016-08-20T12:45:00Z,29.2533,-90.6633,1.0,3.7,189.0,-9999.0,'1111122,1111122,1111122' 
LUMCON,ioos:station:LUMCON:101:1,2016-08-20T13:00:00Z,29.2533,-90.6633,1.0,3.2,203.0,-9999.0,'1111122,1111122,1111122' 
LUMCON,ioos:station:LUMCON:101:1,2016-08-20T13:15:00Z,29.2533,-90.6633,1.0,3.6,181.0,-9999.0,'1111122,1111122,1111122' 
LUMCON,ioos:station:LUMCON:101:1,2016-08-20T13:30:00Z,29.2533,-90.6633,1.0,3.4,163.0,-9999.0,'1111122,1111122,1111122' 
LUMCON,ioos:station:LUMCON:101:1,2016-08-20T13:45:00Z,29.2533,-90.6633,1.0,3.9,204.0,-9999.0,'1111122,1111122,1111122' 
LUMCON,ioos:station:LUMCON:101:1,2016-08-20T14:00:00Z,29.2533,-90.6633,1.0,3.0,187.0,-9999.0,'1111122,1111122,1111122' 
LUMCON,ioos:station:LUMCON:101:1,2016-08-20T14:15:00Z,29.2533,-90.6633,1.0,3.3,181.0,-9999.0,'1111122,1111122,1111122' 
LUMCON,ioos:station:LUMCON:101:1,2016-08-20T14:30:00Z,29.2533,-90.6633,1.0,3.5,172.0,-9999.0,'1111122,1111122,1111122' 
LUMCON,ioos:station:LUMCON:101:1,2016-08-20T14:45:00Z,29.2533,-90.6633,1.0,3.2,144.0,-9999.0,'1111122,1111122,1111122' 
LUMCON,ioos:station:LUMCON:101:1,2016-08-20T15:00:00Z,29.2533,-90.6633,1.0,3.2,170.0,-9999.0,'1111122,1111122,1111122' 
LUMCON,ioos:station:LUMCON:101:1,2016-08-20T15:15:00Z,29.2533,-90.6633,1.0,4.7,169.0,-9999.0,'1111122,1111122,1111122' 
LUMCON,ioos:station:LUMCON:101:1,2016-08-20T15:30:00Z,29.2533,-90.6633,1.0,3.2,156.0,-9999.0,'1111122,1111122,1111122' 
LUMCON,ioos:station:LUMCON:101:1,2016-08-20T15:45:00Z,29.2533,-90.6633,1.0,6.7,167.0,-9999.0,'1111122,1111122,1111122' 
LUMCON,ioos:station:LUMCON:101:1,2016-08-20T16:00:00Z,29.2533,-90.6633,1.0,3.8,157.0,-9999.0,'1111122,1111122,1111122' 
LUMCON,ioos:station:LUMCON:101:1,2016-08-20T16:15:00Z,29.2533,-90.6633,1.0,6.2,164.0,-9999.0,'1111122,1111122,1111122' 
LUMCON,ioos:station:LUMCON:101:1,2016-08-20T16:30:00Z,29.2533,-90.6633,1.0,4.5,186.0,-9999.0,'1111122,1111122,1111122' 
LUMCON,ioos:station:LUMCON:101:1,2016-08-20T16:45:00Z,29.2533,-90.6633,1.0,5.3,177.0,-9999.0,'1111122,1111122,1111122' 
LUMCON,ioos:station:LUMCON:101:1,2016-08-20T17:00:00Z,29.2533,-90.6633,1.0,4.7,198.0,-9999.0,'1111122,1111122,1111122' 
LUMCON,ioos:station:LUMCON:101:1,2016-08-20T17:15:00Z,29.2533,-90.6633,1.0,4.5,193.0,-9999.0,'1111122,1111122,1111122' 
LUMCON,ioos:station:LUMCON:101:1,2016-08-20T17:30:00Z,29.2533,-90.6633,1.0,3.0,180.0,-9999.0,'1111122,1111122,1111122' 
LUMCON,ioos:station:LUMCON:101:1,2016-08-20T17:45:00Z,29.2533,-90.6633,1.0,5.1,179.0,-9999.0,'1111122,1111122,1111122' 
LUMCON,ioos:station:LUMCON:101:1,2016-08-20T18:00:00Z,29.2533,-90.6633,1.0,5.1,180.0,-9999.0,'1111122,1111122,1111122' 
LUMCON,ioos:station:LUMCON:101:1,2016-08-20T18:15:00Z,29.2533,-90.6633,1.0,7.4,192.0,-9999.0,'1111122,1111122,1111122' 
LUMCON,ioos:station:LUMCON:101:1,2016-08-20T18:30:00Z,29.2533,-90.6633,1.0,5.6,177.0,-9999.0,'1111122,1111122,1111122' 
LUMCON,ioos:station:LUMCON:101:1,2016-08-20T18:45:00Z,29.2533,-90.6633,1.0,5.3,181.0,-9999.0,'1111122,1111122,1111122' 
LUMCON,ioos:station:LUMCON:101:1,2016-08-20T19:00:00Z,29.2533,-90.6633,1.0,5.7,177.0,-9999.0,'1111122,1111122,1111122' 
LUMCON,ioos:station:LUMCON:101:1,2016-08-20T19:15:00Z,29.2533,-90.6633,1.0,5.9,179.0,-9999.0,'1111122,1111122,1111122' 
LUMCON,ioos:station:LUMCON:101:1,2016-08-20T19:30:00Z,29.2533,-90.6633,1.0,6.3,185.0,-9999.0,'1111122,1111122,1111122' 
LUMCON,ioos:station:LUMCON:101:1,2016-08-20T19:45:00Z,29.2533,-90.6633,1.0,5.5,200.0,-9999.0,'1111122,1111122,1111122' 
LUMCON,ioos:station:LUMCON:101:1,2016-08-20T20:00:00Z,29.2533,-90.6633,1.0,6.3,181.0,-9999.0,'1111122,1111122,1111122' 
LUMCON,ioos:station:LUMCON:101:1,2016-08-20T20:15:00Z,29.2533,-90.6633,1.0,5.6,187.0,-9999.0,'1111122,1111122,1111122' 
LUMCON,ioos:station:LUMCON:101:1,2016-08-20T20:30:00Z,29.2533,-90.6633,1.0,6.2,173.0,-9999.0,'1111122,1111122,1111122' 
LUMCON,ioos:station:LUMCON:101:1,2016-08-20T20:45:00Z,29.2533,-90.6633,1.0,5.9,182.0,-9999.0,'1111122,1111122,1111122' 
LUMCON,ioos:station:LUMCON:101:1,2016-08-20T21:00:00Z,29.2533,-90.6633,1.0,5.9,165.0,-9999.0,'1111122,1111122,1111122' 
LUMCON,ioos:station:LUMCON:101:1,2016-08-20T21:15:00Z,29.2533,-90.6633,1.0,6.1,178.0,-9999.0,'1111122,1111122,1111122' 
LUMCON,ioos:station:LUMCON:101:1,2016-08-20T21:30:00Z,29.2533,-90.6633,1.0,5.5,185.0,-9999.0,'1111122,1111122,1111122' 
LUMCON,ioos:station:LUMCON:101:1,2016-08-20T21:45:00Z,29.2533,-90.6633,1.0,4.8,206.0,-9999.0,'1111122,1111122,1111122' 
LUMCON,ioos:station:LUMCON:101:1,2016-08-20T22:00:00Z,29.2533,-90.6633,1.0,6.0,186.0,-9999.0,'1111122,1111122,1111122' 
LUMCON,ioos:station:LUMCON:101:1,2016-08-20T22:15:00Z,29.2533,-90.6633,1.0,6.0,182.0,-9999.0,'1111122,1111122,1111122' 
LUMCON,ioos:station:LUMCON:101:1,2016-08-20T22:30:00Z,29.2533,-90.6633,1.0,5.1,160.0,-9999.0,'1111122,1111122,1111122' 
LUMCON,ioos:station:LUMCON:101:1,2016-08-20T22:45:00Z,29.2533,-90.6633,1.0,5.7,184.0,-9999.0,'1111122,1111122,1111122' 
LUMCON,ioos:station:LUMCON:101:1,2016-08-20T23:00:00Z,29.2533,-90.6633,1.0,4.3,162.0,-9999.0,'1111122,1111122,1111122' 
LUMCON,ioos:station:LUMCON:101:1,2016-08-20T23:15:00Z,29.2533,-90.6633,1.0,4.6,183.0,-9999.0,'1111122,1111122,1111122' 
LUMCON,ioos:station:LUMCON:101:1,2016-08-20T23:30:00Z,29.2533,-90.6633,1.0,5.4,191.0,-9999.0,'1111122,1111122,1111122' 
LUMCON,ioos:station:LUMCON:101:1,2016-08-20T23:45:00Z,29.2533,-90.6633,1.0,3.7,172.0,-9999.0,'1111122,1111122,1111122' 
LUMCON,ioos:station:LUMCON:101:1,2016-08-21T00:00:00Z,29.2533,-90.6633,1.0,4.6,184.0,-9999.0,'1111122,1111122,1111122' 
LUMCON,ioos:station:LUMCON:101:1,2016-08-21T00:15:00Z,29.2533,-90.6633,1.0,3.5,170.0,-9999.0,'1111122,1111122,1111122' 
LUMCON,ioos:station:LUMCON:101:1,2016-08-21T00:30:00Z,29.2533,-90.6633,1.0,2.5,157.0,-9999.0,'1111122,1111122,1111122' 
LUMCON,ioos:station:LUMCON:101:1,2016-08-21T00:45:00Z,29.2533,-90.6633,1.0,3.5,154.0,-9999.0,'1111122,1111122,1111122' 
LUMCON,ioos:station:LUMCON:101:1,2016-08-21T01:00:00Z,29.2533,-90.6633,1.0,3.7,158.0,-9999.0,'1111122,1111122,1111122' 
LUMCON,ioos:station:LUMCON:101:1,2016-08-21T01:15:00Z,29.2533,-90.6633,1.0,3.0,168.0,-9999.0,'1111122,1111122,1111122' 
LUMCON,ioos:station:LUMCON:101:1,2016-08-21T01:30:00Z,29.2533,-90.6633,1.0,2.5,179.0,-9999.0,'1111122,1111122,1111122' 
LUMCON,ioos:station:LUMCON:101:1,2016-08-21T01:45:00Z,29.2533,-90.6633,1.0,3.0,157.0,-9999.0,'1111122,1111122,1111122' 
LUMCON,ioos:station:LUMCON:101:1,2016-08-21T02:00:00Z,29.2533,-90.6633,1.0,1.4,156.0,-9999.0,'1111122,1111122,1111122' 
LUMCON,ioos:station:LUMCON:101:1,2016-08-21T02:15:00Z,29.2533,-90.6633,1.0,2.8,139.0,-9999.0,'1111122,1111122,1111122' 
LUMCON,ioos:station:LUMCON:101:1,2016-08-21T02:30:00Z,29.2533,-90.6633,1.0,2.4,164.0,-9999.0,'1111122,1111122,1111122' 
LUMCON,ioos:station:LUMCON:101:1,2016-08-21T02:45:00Z,29.2533,-90.6633,1.0,1.7,166.0,-9999.0,'1111122,1111122,1111122' 
LUMCON,ioos:station:LUMCON:101:1,2016-08-21T03:00:00Z,29.2533,-90.6633,1.0,1.8,150.0,-9999.0,'1111122,1111122,1111122' 
LUMCON,ioos:station:LUMCON:101:1,2016-08-21T03:15:00Z,29.2533,-90.6633,1.0,2.4,173.0,-9999.0,'1111122,1111122,1111122' 
LUMCON,ioos:station:LUMCON:101:1,2016-08-21T03:30:00Z,29.2533,-90.6633,1.0,2.4,175.0,-9999.0,'1111122,1111122,1111122' 
LUMCON,ioos:station:LUMCON:101:1,2016-08-21T03:45:00Z,29.2533,-90.6633,1.0,2.4,156.0,-9999.0,'1111122,1111122,1111122' 
LUMCON,ioos:station:LUMCON:101:1,2016-08-21T04:00:00Z,29.2533,-90.6633,1.0,2.5,136.0,-9999.0,'1111122,1111122,1111122' 
LUMCON,ioos:station:LUMCON:101:1,2016-08-21T04:15:00Z,29.2533,-90.6633,1.0,2.6,188.0,-9999.0,'1111122,1111122,1111122' 
LUMCON,ioos:station:LUMCON:101:1,2016-08-21T04:30:00Z,29.2533,-90.6633,1.0,1.9,154.0,-9999.0,'1111122,1111122,1111122' 
LUMCON,ioos:station:LUMCON:101:1,2016-08-21T04:45:00Z,29.2533,-90.6633,1.0,2.6,171.0,-9999.0,'1111122,1111122,1111122' 
LUMCON,ioos:station:LUMCON:101:1,2016-08-21T05:00:00Z,29.2533,-90.6633,1.0,2.5,171.0,-9999.0,'1111122,1111122,1111122' 
LUMCON,ioos:station:LUMCON:101:1,2016-08-21T05:15:00Z,29.2533,-90.6633,1.0,2.7,174.0,-9999.0,'1111122,1111122,1111122' 
LUMCON,ioos:station:LUMCON:101:1,2016-08-21T05:30:00Z,29.2533,-90.6633,1.0,2.7,186.0,-9999.0,'1111122,1111122,1111122' 
LUMCON,ioos:station:LUMCON:101:1,2016-08-21T05:45:00Z,29.2533,-90.6633,1.0,2.7,189.0,-9999.0,'1111122,1111122,1111122' 
LUMCON,ioos:station:LUMCON:101:1,2016-08-21T06:00:00Z,29.2533,-90.6633,1.0,2.6,185.0,-9999.0,'1111122,1111122,1111122' 
LUMCON,ioos:station:LUMCON:101:1,2016-08-21T06:15:00Z,29.2533,-90.6633,1.0,3.4,178.0,-9999.0,'1111122,1111122,1111122' 
LUMCON,ioos:station:LUMCON:101:1,2016-08-21T06:30:00Z,29.2533,-90.6633,1.0,2.7,186.0,-9999.0,'1111122,1111122,1111122' 
LUMCON,ioos:station:LUMCON:101:1,2016-08-21T06:45:00Z,29.2533,-90.6633,1.0,3.0,181.0,-9999.0,'1111122,1111122,1111122' 
LUMCON,ioos:station:LUMCON:101:1,2016-08-21T07:00:00Z,29.2533,-90.6633,1.0,2.7,178.0,-9999.0,'1111122,1111122,1111122' 
LUMCON,ioos:station:LUMCON:101:1,2016-08-21T07:15:00Z,29.2533,-90.6633,1.0,2.6,171.0,-9999.0,'1111122,1111122,1111122' 
LUMCON,ioos:station:LUMCON:101:1,2016-08-21T07:30:00Z,29.2533,-90.6633,1.0,2.6,189.0,-9999.0,'1111122,1111122,1111122' 
LUMCON,ioos:station:LUMCON:101:1,2016-08-21T07:45:00Z,29.2533,-90.6633,1.0,2.7,170.0,-9999.0,'1111122,1111122,1111122' 
LUMCON,ioos:station:LUMCON:101:1,2016-08-21T08:00:00Z,29.2533,-90.6633,1.0,3.0,183.0,-9999.0,'1111122,1111122,1111122' 
LUMCON,ioos:station:LUMCON:101:1,2016-08-21T08:15:00Z,29.2533,-90.6633,1.0,3.2,183.0,-9999.0,'1111122,1111122,1111122' 
LUMCON,ioos:station:LUMCON:101:1,2016-08-21T08:30:00Z,29.2533,-90.6633,1.0,2.8,203.0,-9999.0,'1111122,1111122,1111122' 
LUMCON,ioos:station:LUMCON:101:1,2016-08-21T08:45:00Z,29.2533,-90.6633,1.0,3.0,203.0,-9999.0,'1111122,1111122,1111122' 
LUMCON,ioos:station:LUMCON:101:1,2016-08-21T09:00:00Z,29.2533,-90.6633,1.0,1.9,220.0,-9999.0,'1111122,1111122,1111122' 
LUMCON,ioos:station:LUMCON:101:1,2016-08-21T09:15:00Z,29.2533,-90.6633,1.0,2.2,183.0,-9999.0,'1111122,1111122,1111122' 
LUMCON,ioos:station:LUMCON:101:1,2016-08-21T09:30:00Z,29.2533,-90.6633,1.0,1.7,196.0,-9999.0,'1111122,1111122,1111122' 
LUMCON,ioos:station:LUMCON:101:1,2016-08-21T09:45:00Z,29.2533,-90.6633,1.0,1.8,201.0,-9999.0,'1111122,1111122,1111122' 
LUMCON,ioos:station:LUMCON:101:1,2016-08-21T10:00:00Z,29.2533,-90.6633,1.0,1.8,169.0,-9999.0,'1111122,1111122,1111122' 
LUMCON,ioos:station:LUMCON:101:1,2016-08-21T10:15:00Z,29.2533,-90.6633,1.0,2.1,170.0,-9999.0,'1111122,1111122,1111122' 
LUMCON,ioos:station:LUMCON:101:1,2016-08-21T10:30:00Z,29.2533,-90.6633,1.0,1.8,180.0,-9999.0,'1111122,1111122,1111122' 
LUMCON,ioos:station:LUMCON:101:1,2016-08-21T10:45:00Z,29.2533,-90.6633,1.0,2.3,178.0,-9999.0,'1111122,1111122,1111122' 
LUMCON,ioos:station:LUMCON:101:1,2016-08-21T11:00:00Z,29.2533,-90.6633,1.0,1.7,165.0,-9999.0,'1111122,1111122,1111122' 
LUMCON,ioos:station:LUMCON:101:1,2016-08-21T11:15:00Z,29.2533,-90.6633,1.0,1.9,164.0,-9999.0,'1111122,1111122,1111122' 
LUMCON,ioos:station:LUMCON:101:1,2016-08-21T11:30:00Z,29.2533,-90.6633,1.0,2.3,158.0,-9999.0,'1111122,1111122,1111122' 
LUMCON,ioos:station:LUMCON:101:1,2016-08-21T11:45:00Z,29.2533,-90.6633,1.0,1.7,179.0,-9999.0,'1111122,1111122,1111122' 
LUMCON,ioos:station:LUMCON:101:1,2016-08-21T12:00:00Z,29.2533,-90.6633,1.0,2.6,192.0,-9999.0,'1111122,1111122,1111122' 
LUMCON,ioos:station:LUMCON:101:1,2016-08-21T12:15:00Z,29.2533,-90.6633,1.0,1.9,203.0,-9999.0,'1111122,1111122,1111122' 